Weather History for Marco Island Airport, FL

Change the Weather History Date:

Wednesday, March 12, 2014

  Actual Average (KAPF) Record (KAPF)
Temperature  
Mean Temperature 76 °F 70 °F  
Max Temperature 82 °F 80 °F 88 °F (1973)
Min Temperature 71 °F 60 °F 42 °F (1969)
Degree Days  
Heating Degree Days 0 1  
Month to date heating degree days 12  
Since 1 July heating degree days 245  
Cooling Degree Days 12 5  
Month to date cooling degree days 60  
Year to date cooling degree days 251  
Growing Degree Days 26 (Base 50)    
Moisture  
Dew Point 68 °F    
Average Humidity 79    
Maximum Humidity 94    
Minimum Humidity 58    
Precipitation  
Precipitation 0.00 in 0.06 in 4.10 in (1970)
Month to date precipitation 0.83  
Year to date precipitation 4.78  
Snow  
Snow 0.00 in - - ()
Month to date snowfall  
Since 1 July snowfall  
Snow Depth -    
Sea Level Pressure  
Sea Level Pressure 29.86 in    
Wind  
Wind Speed 8 mph (SW)    
Max Wind Speed 15 mph    
Max Gust Speed 23 mph    
Visibility 10 miles    
Events      
T = Trace of Precipitation, MM = Missing Value Source: NWS Daily Summary

Daily Weather History Graph

Daily Weather History Graph

Search for Another Location

Airport:

Trip Planner

Search our weather history database for the weather conditions in past years. The results will help you decide how hot, cold, wet, or windy it might be!

Date:

Astronomy

Mar. 12, 2014 Rise Set
Actual Time 7:39 AM EDT 7:34 PM EDT
Civil Twilight 7:16 AM EDT 7:57 PM EDT
Nautical Twilight 6:49 AM EDT 8:23 PM EDT
Astronomical Twilight 6:22 AM EDT 8:50 PM EDT
Moon 4:19 PM EDT (3/12) 4:52 AM EDT (3/12)
Length of Visible Light 12h 41m
Length of Day
11h 55m
Waxing Gibbous, 85% of the Moon is Illuminated
Mar 12
Waxing Gibbous
Mar 16
Full
Mar 23
Last Quarter
Mar 30
New
Apr 7
First Quarter

Hourly Weather History & Observations

Time (EDT) Temp. Heat Index Dew Point Humidity Pressure Visibility Wind Dir Wind Speed Gust Speed Precip Events Conditions
12:15 AM 71.6 °F - 66.2 °F 83% 29.90 in 10.0 mi South 6.9 mph - N/A   Clear
12:35 AM 71.6 °F - 68.0 °F 88% 29.90 in 10.0 mi South 9.2 mph - N/A   Clear
12:55 AM 71.6 °F - 68.0 °F 88% 29.90 in 10.0 mi South 8.1 mph - N/A   Clear
1:15 AM 71.6 °F - 68.0 °F 88% 29.89 in 10.0 mi South 9.2 mph - N/A   Clear
1:35 AM 71.6 °F - 68.0 °F 88% 29.89 in 10.0 mi South 8.1 mph - N/A   Clear
1:55 AM 71.6 °F - 68.0 °F 88% 29.89 in 10.0 mi SSW 5.8 mph - N/A   Partly Cloudy
2:15 AM 71.6 °F - 68.0 °F 88% 29.88 in 10.0 mi SSW 5.8 mph - N/A   Mostly Cloudy
2:35 AM 71.6 °F - 68.0 °F 88% 29.87 in 10.0 mi SSW 8.1 mph - N/A   Mostly Cloudy
2:55 AM 71.6 °F - 68.0 °F 88% 29.86 in 10.0 mi South 6.9 mph - N/A   Partly Cloudy
3:15 AM 71.6 °F - 68.0 °F 88% 29.85 in 10.0 mi South 9.2 mph - N/A   Clear
3:35 AM 71.6 °F - 68.0 °F 88% 29.84 in 10.0 mi South 9.2 mph - N/A   Clear
3:55 AM 71.6 °F - 68.0 °F 88% 29.84 in 10.0 mi South 8.1 mph - N/A   Clear
4:15 AM 71.6 °F - 68.0 °F 88% 29.83 in 10.0 mi South 8.1 mph - N/A   Clear
4:35 AM 71.6 °F - 68.0 °F 88% 29.83 in 10.0 mi South 6.9 mph - N/A   Clear
4:55 AM 71.6 °F - 68.0 °F 88% 29.83 in 10.0 mi South 8.1 mph - N/A   Clear
5:15 AM 71.6 °F - 68.0 °F 88% 29.82 in 10.0 mi South 8.1 mph - N/A   Clear
5:35 AM 71.6 °F - 68.0 °F 88% 29.82 in 10.0 mi South 6.9 mph - N/A   Clear
5:55 AM 71.6 °F - 68.0 °F 88% 29.83 in 10.0 mi South 6.9 mph - N/A   Clear
6:15 AM 71.6 °F - 68.0 °F 88% 29.82 in 10.0 mi South 5.8 mph - N/A   Clear
6:35 AM 71.6 °F - 68.0 °F 88% 29.83 in 10.0 mi South 3.5 mph - N/A   Clear
6:55 AM 71.6 °F - 68.0 °F 88% 29.85 in 10.0 mi SSW 4.6 mph - N/A   Clear
7:15 AM 71.6 °F - 69.8 °F 94% 29.84 in 10.0 mi South 9.2 mph - N/A   Clear
7:35 AM 71.6 °F - 69.8 °F 94% 29.84 in 10.0 mi South 5.8 mph - N/A   Clear
7:55 AM 71.6 °F - 69.8 °F 94% 29.86 in 10.0 mi South 5.8 mph - N/A   Clear
8:15 AM 71.6 °F - 69.8 °F 94% 29.86 in 10.0 mi South 5.8 mph - N/A   Clear
8:35 AM 73.4 °F - 69.8 °F 88% 29.86 in 10.0 mi South 6.9 mph - N/A   Clear
8:55 AM 75.2 °F - 69.8 °F 83% 29.87 in 10.0 mi South 4.6 mph - N/A   Clear
9:15 AM 75.2 °F - 69.8 °F 83% 29.88 in 10.0 mi SSW 6.9 mph - N/A   Clear
9:35 AM 77.0 °F - 69.8 °F 78% 29.88 in 10.0 mi SSW 9.2 mph - N/A   Clear
9:55 AM 78.8 °F - 71.6 °F 78% 29.89 in 10.0 mi SW 11.5 mph - N/A   Clear
10:15 AM 78.8 °F - 69.8 °F 74% 29.90 in 10.0 mi SW 12.7 mph - N/A   Clear
10:35 AM 78.8 °F - 69.8 °F 74% 29.90 in 10.0 mi SW 13.8 mph 19.6 mph N/A   Clear
10:55 AM 80.6 °F 83.9 °F 69.8 °F 70% 29.90 in 10.0 mi SW 12.7 mph 17.3 mph N/A   Clear
11:15 AM 80.6 °F 83.9 °F 69.8 °F 70% 29.91 in 10.0 mi SW 12.7 mph 21.9 mph N/A   Clear
11:35 AM 80.6 °F 83.9 °F 69.8 °F 70% 29.91 in 10.0 mi SW 8.1 mph 18.4 mph N/A   Partly Cloudy
11:55 AM 80.6 °F 83.2 °F 68.0 °F 65% 29.91 in 10.0 mi WSW 13.8 mph 20.7 mph N/A   Mostly Cloudy
12:15 PM 80.6 °F 83.9 °F 69.8 °F 70% 29.90 in 10.0 mi SW 9.2 mph 17.3 mph N/A   Scattered Clouds
12:35 PM 80.6 °F 83.2 °F 68.0 °F 65% 29.90 in 10.0 mi WSW 10.4 mph 19.6 mph N/A   Clear
12:55 PM 82.4 °F 86.3 °F 69.8 °F 66% 29.89 in 10.0 mi West 13.8 mph 19.6 mph N/A   Clear
1:15 PM 82.4 °F 86.3 °F 69.8 °F 66% 29.89 in 10.0 mi WSW 15.0 mph 20.7 mph N/A   Clear
1:35 PM 82.4 °F 84.6 °F 66.2 °F 58% 29.88 in 10.0 mi WSW 13.8 mph 19.6 mph N/A   Clear
1:55 PM 82.4 °F 84.6 °F 66.2 °F 58% 29.87 in 10.0 mi WSW 12.7 mph 20.7 mph N/A   Clear
2:15 PM 82.4 °F 84.6 °F 66.2 °F 58% 29.86 in 10.0 mi WSW 12.7 mph 20.7 mph N/A   Clear
2:35 PM 82.4 °F 84.6 °F 66.2 °F 58% 29.85 in 10.0 mi WSW 13.8 mph 20.7 mph N/A   Clear
2:55 PM 82.4 °F 84.6 °F 66.2 °F 58% 29.84 in 10.0 mi SW 12.7 mph 23.0 mph N/A   Clear
3:15 PM 82.4 °F 85.4 °F 68.0 °F 62% 29.83 in 10.0 mi WSW 11.5 mph 16.1 mph N/A   Clear
3:35 PM 82.4 °F 85.4 °F 68.0 °F 62% 29.82 in 10.0 mi WSW 13.8 mph 19.6 mph N/A   Clear
3:55 PM 80.6 °F 82.7 °F 66.2 °F 61% 29.82 in 10.0 mi SW 12.7 mph 23.0 mph N/A   Mostly Cloudy
4:15 PM 80.6 °F 82.7 °F 66.2 °F 61% 29.82 in 10.0 mi WSW 13.8 mph 21.9 mph N/A   Mostly Cloudy
4:35 PM 80.6 °F 83.2 °F 68.0 °F 65% 29.82 in 10.0 mi SW 13.8 mph 20.7 mph N/A   Overcast
4:55 PM 78.8 °F - 68.0 °F 69% 29.82 in 10.0 mi SW 12.7 mph 19.6 mph N/A   Overcast
5:15 PM 78.8 °F - 68.0 °F 69% 29.82 in 10.0 mi WSW 8.1 mph 17.3 mph N/A   Overcast
5:35 PM 78.8 °F - 69.8 °F 74% 29.81 in 10.0 mi SW 11.5 mph 17.3 mph N/A   Mostly Cloudy
5:55 PM 77.0 °F - 69.8 °F 78% 29.82 in 10.0 mi WSW 12.7 mph 17.3 mph N/A   Overcast
6:15 PM 77.0 °F - 69.8 °F 78% 29.82 in 10.0 mi WSW 9.2 mph - N/A   Overcast
6:35 PM 75.2 °F - 69.8 °F 83% 29.82 in 10.0 mi WSW 8.1 mph 17.3 mph N/A   Overcast
6:55 PM 75.2 °F - 69.8 °F 83% 29.83 in 8.0 mi WSW 5.8 mph - N/A   Overcast
7:15 PM 75.2 °F - 69.8 °F 83% 29.83 in 10.0 mi WSW 3.5 mph - N/A   Overcast
7:35 PM 75.2 °F - 69.8 °F 83% 29.83 in 10.0 mi WSW 5.8 mph - N/A   Overcast
7:55 PM 75.2 °F - 69.8 °F 83% 29.84 in 10.0 mi SW 6.9 mph - N/A   Overcast
8:15 PM 73.4 °F - 66.2 °F 78% 29.85 in 10.0 mi WSW 8.1 mph - N/A   Overcast
8:35 PM 73.4 °F - 66.2 °F 78% 29.86 in 10.0 mi West 5.8 mph - N/A   Overcast
8:55 PM 73.4 °F - 66.2 °F 78% 29.86 in 10.0 mi WNW 3.5 mph - N/A   Overcast
9:15 PM 73.4 °F - 66.2 °F 78% 29.87 in 10.0 mi WNW 6.9 mph - N/A   Overcast
9:35 PM 73.4 °F - 68.0 °F 83% 29.88 in 10.0 mi WNW 5.8 mph - N/A   Overcast
9:55 PM 73.4 °F - 69.8 °F 88% 29.88 in 10.0 mi WNW 8.1 mph - N/A   Overcast
10:15 PM 73.4 °F - 69.8 °F 88% 29.88 in 10.0 mi WNW 6.9 mph - N/A   Overcast
10:35 PM 73.4 °F - 69.8 °F 88% 29.88 in 10.0 mi WNW 4.6 mph - N/A   Overcast
10:55 PM 73.4 °F - 69.8 °F 88% 29.88 in 10.0 mi WNW 3.5 mph - N/A   Overcast
11:15 PM 73.4 °F - 69.8 °F 88% 29.88 in 10.0 mi NW 4.6 mph - N/A   Overcast
11:35 PM 73.4 °F - 69.8 °F 88% 29.88 in 10.0 mi NW 9.2 mph - N/A   Overcast
11:55 PM 73.4 °F - 68.0 °F 83% 29.88 in 10.0 mi NW 6.9 mph - N/A   Overcast